TimeCST,TemperatureF,Dew PointF,Humidity,Sea Level PressureIn,VisibilityMPH,Wind Direction,Wind SpeedMPH,Gust SpeedMPH,PrecipitationIn,Events,Conditions,WindDirDegrees,DateUTC
12:54 AM,44.1,42.1,93,30.06,3.0,South,11.5,-,N/A,,Scattered Clouds,180,2012-11-22 06:54:00
1:34 AM,42.8,42.8,100,30.05,2.0,South,11.5,-,N/A,,Partly Cloudy,170,2012-11-22 07:34:00
1:54 AM,42.1,41.0,96,30.06,2.0,South,6.9,-,N/A,,Partly Cloudy,190,2012-11-22 07:54:00
2:54 AM,43.0,41.0,93,30.04,2.0,South,11.5,-,N/A,,Partly Cloudy,180,2012-11-22 08:54:00
3:54 AM,44.1,42.1,93,30.01,2.0,SSW,11.5,-,N/A,,Partly Cloudy,200,2012-11-22 09:54:00
4:03 AM,44.6,42.8,93,30.01,3.0,SSW,11.5,-,N/A,,Partly Cloudy,200,2012-11-22 10:03:00
4:54 AM,44.1,42.1,93,30.00,4.0,South,11.5,-,N/A,,Partly Cloudy,190,2012-11-22 10:54:00
5:54 AM,44.1,41.0,89,29.99,4.0,South,10.4,-,N/A,,Partly Cloudy,190,2012-11-22 11:54:00
6:54 AM,44.1,41.0,89,29.97,5.0,South,13.8,-,N/A,,Mostly Cloudy,190,2012-11-22 12:54:00
7:54 AM,45.0,42.1,90,29.96,4.0,South,11.5,-,N/A,,Mostly Cloudy,190,2012-11-22 13:54:00
8:54 AM,48.0,44.1,86,29.94,6.0,South,12.7,-,N/A,,Mostly Cloudy,180,2012-11-22 14:54:00
9:54 AM,52.0,45.0,77,29.93,7.0,South,13.8,-,N/A,,Overcast,190,2012-11-22 15:54:00
10:54 AM,57.0,44.1,62,29.89,8.0,South,16.1,25.3,N/A,,Mostly Cloudy,190,2012-11-22 16:54:00
11:54 AM,63.0,43.0,48,29.84,10.0,SSW,25.3,34.5,N/A,,Overcast,200,2012-11-22 17:54:00
12:54 PM,62.1,44.1,52,29.82,10.0,SSW,18.4,27.6,N/A,,Overcast,210,2012-11-22 18:54:00
1:54 PM,63.0,45.0,52,29.80,10.0,SSW,26.5,39.1,N/A,,Overcast,200,2012-11-22 19:54:00
2:54 PM,61.0,46.0,58,29.80,10.0,SSW,17.3,28.8,N/A,,Overcast,210,2012-11-22 20:54:00
3:54 PM,55.9,50.0,80,29.80,10.0,SSW,12.7,-,0.00,,Overcast,210,2012-11-22 21:54:00
4:54 PM,55.0,50.0,83,29.81,10.0,SSW,12.7,-,0.00,,Overcast,200,2012-11-22 22:54:00
5:54 PM,55.9,48.9,77,29.81,10.0,SSW,13.8,-,N/A,,Overcast,200,2012-11-22 23:54:00
6:54 PM,57.0,50.0,77,29.80,10.0,SW,15.0,-,N/A,,Overcast,220,2012-11-23 00:54:00
7:54 PM,57.9,48.9,72,29.80,10.0,WSW,16.1,26.5,N/A,,Mostly Cloudy,240,2012-11-23 01:54:00
8:54 PM,50.0,39.9,68,29.85,10.0,West,17.3,28.8,N/A,,Scattered Clouds,280,2012-11-23 02:54:00
9:54 PM,43.0,34.0,71,29.88,10.0,WNW,23.0,34.5,N/A,,Mostly Cloudy,300,2012-11-23 03:54:00
10:54 PM,39.9,32.0,73,29.91,10.0,West,20.7,27.6,N/A,,Scattered Clouds,280,2012-11-23 04:54:00
11:35 PM,39.2,30.2,70,29.93,10.0,WNW,18.4,34.5,N/A,,Mostly Cloudy,290,2012-11-23 05:35:00
11:54 PM,39.0,28.9,67,29.94,10.0,WNW,29.9,39.1,N/A,,Overcast,290,2012-11-23 05:54:00